Regional Weather Roundup
Issued by NWS

Home | Current Version | Previous Version | Text Only | Print | Product List | Glossary On
Versions: 1 2 3 4 5 6 7 8 9 10 11 12 13 14 15 16 17 18 19 20 21 22 23 24 25 26 27
000
ASUS45 KREV 191710
RWRNV
NEVADA REGIONAL WEATHER ROUNDUP
NATIONAL WEATHER SERVICE RENO NV
900 AM PST FRI JAN 19 2018

NOTE: "FAIR" INDICATES FEW OR NO CLOUDS BELOW 12,000 FEET WITH NO
SIGNIFICANT WEATHER AND/OR OBSTRUCTIONS TO VISIBILITY.

NVZ001-003-004-191800-
WESTERN NEVADA

CITY           SKY/WX    TMP DP  RH WIND       PRES   REMARKS
RENO           PTSUNNY   38  16  40 NW17G26   29.96S
CARSON CITY    FAIR      37  16  41 SW8G17    30.00R
MINDEN         FAIR      36  21  55 CALM      30.01R
FALLON         CLOUDY    42   2  18 NW7       29.98R
LOVELOCK       CLOUDY    38  30  73 NE8       29.99R
HAWTHORNE      CLOUDY    45  23  42 NW16      29.92R
$$

NVZ002-CAZ072-073-191800-
NORTHERN AND CENTRAL SIERRA

CITY           SKY/WX    TMP DP  RH WIND       PRES   REMARKS
S. LAKE TAHOE  CLOUDY    26  22  84 SW6       29.99R
TRUCKEE        MOSUNNY   25  19  80 NE3       30.00S
SQUAW VLY 8000 NOT AVBL
SUSANVILLE     SUNNY     34  28  80 NW10      30.01R
BLUE CANYON    CLOUDY    29  29 100 SE7       30.03S
MAMMOTH LAKES  FLURRIES  32  29  86 SW5       29.96R
$$

NVZ030-031-036-191800-
NORTHERN NEVADA

CITY           SKY/WX    TMP DP  RH WIND       PRES   REMARKS
ELKO           CLOUDY    35  32  88 SW9       29.91R
WINNEMUCCA     CLOUDY    36  27  69 CALM      29.96R
WENDOVER       PTSUNNY   39  28  64 MISG      29.82R
$$

NVZ035-037-191800-
CENTRAL NEVADA

CITY           SKY/WX    TMP DP  RH WIND       PRES   REMARKS
ELY            CLOUDY    44  28  53 SE16G23   29.88S
EUREKA           N/A     42  30  62 W10       29.88R
$$

NVZ013-014-191800-
SOUTH CENTRAL NEVADA

CITY           SKY/WX    TMP DP  RH WIND       PRES   REMARKS
TONOPAH        MOSUNNY   42  32  67 CALM      29.90S
$$

NVZ017-020-022-191800-
SOUTHERN NEVADA

CITY           SKY/WX    TMP DP  RH WIND       PRES   REMARKS
LAS VEGAS      PTSUNNY   58  37  45 CALM      29.93S
N. LAS VEGAS   MOSUNNY   56  35  45 E6        29.93S
NELLIS AFB     PTSUNNY   58  36  44 NE8       29.93S
HENDERSON      MOSUNNY   62  35  36 S10       29.95S
MERCURY        CLOUDY    62  31  31 SW30G43   29.87S
$$




USA.gov is the U.S. government's official web portal to all federal, state and local government web resources and services.